Moline, Illinois, United States (61265)
Lat: 41.51N, Lon: 90.52W
Wx Zone: ILZ015
Local Info
Past Weather Observations for Today

NOTE: This archive is for the closest National Weather Service station to Moline. Information may differ from the station used for current weather conditions.

Click here for Long-term Archive

Time Weather Temperature Dewpoint Humidity Pressure Winds Precip Visibility
22:52
Clear
75°F / 24°C 70°F / 21°C 83% 30.01 in
(1016 mb)
SSE 8.1 mph
(SSE 13 kph)
- 7SM
21:52
Partly Cloudy
75°F / 24°C 72°F / 22°C 89% 30.01 in
(1016 mb)
SSE 5.8 mph
(SSE 9 kph)
- 7SM
20:52
Clear
75°F / 24°C 72°F / 22°C 89% 30.01 in
(1016 mb)
SSE 5.8 mph
(SSE 9 kph)
- 7SM
19:52
Clear
75°F / 24°C 72°F / 22°C 89% 29.98 in
(1015 mb)
Calm - 7SM
18:52
Clear
Hazy
77°F / 25°C 72°F / 22°C 83% 29.98 in
(1015 mb)
SE 3.5 mph
(SE 6 kph)
- 6SM
17:52
Clear
84°F / 29°C 73°F / 23°C 70% 29.98 in
(1015 mb)
SSE 3.5 mph
(SSE 6 kph)
- 8SM
16:52
Clear
86°F / 30°C 72°F / 22°C 62% 29.98 in
(1015 mb)
SSE 6.9 mph
(SSE 11 kph)
- 9SM
15:52
Partly Cloudy
88°F / 31°C 72°F / 22°C 59% 29.98 in
(1015 mb)
S 9.2 mph
(S 15 kph)
- 9SM
14:52
Partly Cloudy
88°F / 31°C 72°F / 22°C 59% 29.98 in
(1015 mb)
S 8.1 mph
(S 13 kph)
- 10SM
13:52
Partly Cloudy
86°F / 30°C 72°F / 22°C 62% 30.01 in
(1016 mb)
S 9.2 mph
(S 15 kph)
- 10SM
12:52
Partly Cloudy
88°F / 31°C 70°F / 21°C 55% 30.04 in
(1017 mb)
Variable 6.9 mph
(Variable 11 kph)
- 9SM
11:52
Clear
86°F / 30°C 70°F / 21°C 59% 30.04 in
(1017 mb)
S 8.1 mph
(S 13 kph)
- 9SM
10:52
Clear
84°F / 29°C 72°F / 22°C 66% 30.04 in
(1017 mb)
Variable 6.9 mph
(Variable 11 kph)
- 10SM
09:52
Clear
81°F / 27°C 72°F / 22°C 74% 30.06 in
(1018 mb)
SE 3.5 mph
(SE 6 kph)
- 9SM
08:52
Clear
75°F / 24°C 70°F / 21°C 83% 30.04 in
(1017 mb)
E 3.5 mph
(E 6 kph)
- 7SM
07:52
Clear
Fog And Mist
70°F / 21°C 64°F / 18°C 83% 30.04 in
(1017 mb)
E 4.6 mph
(E 7 kph)
- 5SM
06:52
Clear
Fog And Mist
64°F / 18°C 63°F / 17°C 94% 30.06 in
(1018 mb)
Calm - 5SM
05:52
Clear
Fog And Mist
61°F / 16°C 57°F / 14°C 88% 30.04 in
(1017 mb)
ESE 4.6 mph
(ESE 7 kph)
- 4SM
04:52
Clear
Fog And Mist
61°F / 16°C 57°F / 14°C 88% 30.04 in
(1017 mb)
ESE 4.6 mph
(ESE 7 kph)
- 4SM
03:52
Clear
Fog And Mist
61°F / 16°C 59°F / 15°C 94% 30.04 in
(1017 mb)
E 3.5 mph
(E 6 kph)
- 4SM
02:52
Clear
Fog And Mist
63°F / 17°C 59°F / 15°C 88% 30.04 in
(1017 mb)
E 3.5 mph
(E 6 kph)
- 6SM
01:52
Clear
Fog And Mist
63°F / 17°C 59°F / 15°C 88% 30.04 in
(1017 mb)
SE 3.5 mph
(SE 6 kph)
- 6SM
01:44
Clear
Fog And Mist
63°F / 17°C 61°F / 16°C 94% 30.04 in
(1017 mb)
ESE 3.5 mph
(ESE 6 kph)
- 3SM
01:38
Clear
Fog And Mist
61°F / 16°C 61°F / 16°C 100% 30.01 in
(1016 mb)
E 3.5 mph
(E 6 kph)
- 1 3/4SM
01:18
Clear
Fog And Mist
63°F / 17°C 59°F / 15°C 88% 30.01 in
(1016 mb)
Calm - 3SM
01:16
Clear
Fog And Mist
61°F / 16°C 59°F / 15°C 94% 30.01 in
(1016 mb)
Calm - 1 3/4SM
01:09
Clear
Fog And Mist
61°F / 16°C 59°F / 15°C 94% 30.01 in
(1016 mb)
Calm - 3/4SM
01:05
Clear
Fog And Mist
61°F / 16°C 61°F / 16°C 100% 30.01 in
(1016 mb)
SE 3.5 mph
(SE 6 kph)
- 1 3/4SM
00:52
Clear
Fog And Mist
61°F / 16°C 61°F / 16°C 100% 30.01 in
(1016 mb)
Calm - 3SM
00:41
Clear
Fog And Mist
63°F / 17°C 61°F / 16°C 94% 30.04 in
(1017 mb)
Calm - 2SM
Time Weather Temperature Dewpoint Humidity Pressure Winds Precip Visibility


Weather for websites

WeatherForYou.com, LLC is not responsible for any damages or problems caused by this service. Current weather conditions are obtained from the closest station including government and personal stations which may have varying degrees of accuracy. Weather forecasts are derived from the NOAA NDFD. Like all things, this site belongs to Jesus Christ... He just trusts us to maintain it. If you have any questions or comments email webmaster@weatherforyou.com

Copyright © 2015, WeatherForYou.com LLC. All rights reserved.